OpenBCM V1.13 (Linux)

Packet Radio Mailbox

DB0FHN

[JN59NK Nuernberg]

 Login: GUEST





  
CX2SA  > KEPS     19.11.04 09:49l 165 Lines 7767 Bytes #999 (0) @ AMSAT
BID : ORB04323.N
Read: DO2ARW GUEST DL7NDR
Subj: 2Line Orbital Elements 04323.AMSAT
Path: DB0FHN<DB0MRW<OK0PKL<OK0PPL<DB0RES<ON0AR<VE2RXY<CX2SA
Sent: 041119/0735Z @:CX2SA.LAV.URY.SA #:40538 [Minas] FBB7.00e $:ORB04323.N
From: CX2SA@CX2SA.LAV.URY.SA
To  : KEPS@AMSAT


HR AMSAT ORBITAL ELEMENTS FOR AMATEUR SATELLITES IN NASA FORMAT
FROM WA5QGD FORT WORTH,TX November 18, 2004
SEND SUBSCRIBE/UNSUBSCRIBE TO majordomo@amsat.org ONLY
BID: ORB04323.N

DECODE 2-LINE ELSETS WITH THE FOLLOWING KEY:
1 AAAAAU 00  0  0 BBBBB.BBBBBBBB  .CCCCCCCC  00000-0  00000-0 0  DDDZ
2 AAAAA EEE.EEEE FFF.FFFF GGGGGGG HHH.HHHH III.IIII JJ.JJJJJJJJKKKKKZ
KEY: A-CATALOGNUM B-EPOCHTIME C-DECAY D-ELSETNUM E-INCLINATION F-RAAN
G-ECCENTRICITY H-ARGPERIGEE I-MNANOM J-MNMOTION K-ORBITNUM Z-CHECKSUM

TO ALL RADIO AMATEURS BT

AO-07
1 07530U 74089B   04323.14376292 -.00000029  00000-0  10000-3 0  3483
2 07530 101.6621   7.3561 0012042 284.0309  75.9424 12.53569405373207
AO-10
1 14129U 83058B   04323.54316258  .00000000  00000-0  10000-3 0  1218
2 14129  26.8116  60.9628 6031976 141.7374 282.2047  2.05866459161203
UO-11
1 14781U 84021B   04323.15277756  .00000670  00000-0  97894-4 0  6382
2 14781  98.1900 310.6539 0008419 322.9215  37.1413 14.79073109110601
RS-10/11
1 18129U 87054A   04323.16100124  .00000038  00000-0  25315-4 0  5405
2 18129  82.9285  34.2318 0010110 252.3109 107.6953 13.72748383872120
FO-20
1 20480U 90013C   04322.64854016 -.00000046  00000-0 -30181-4 0  7438
2 20480  99.0225 171.0831 0540502 359.2166   0.8021 12.83343245692364
RS-12/13
1 21089U 91007A   04322.83820922  .00000028  00000-0  14084-4 0  7654
2 21089  82.9225  67.7374 0028009 310.6984  49.1739 13.74443295691465
RS-15
1 23439U 94085A   04322.87485444 -.00000039  00000-0  10597-3 0 08359
2 23439 064.8142 089.2893 0157680 353.7204 006.1742 11.27550372407563
FO-29
1 24278U 96046B   04323.73558141  .00000003  00000-0  39658-4 0  8283
2 24278  98.5776  35.4074 0351250   1.6075 358.6105 13.52905618407734
SO-33
1 25509U 98061B   04322.91565874  .00000336  00000-0  55827-4 0  2391
2 25509  31.4257 146.7129 0355552 119.6937 243.9581 14.27911939316600
AO-40
1 26609U 00072B   04323.12435274 -.00000068  00000-0  10000-3 0  4581
2 26609   9.3405 334.1383 7960267 339.5917   1.3193  1.25585916 18609
UO-14
1 20437U 90005B   04323.64849436  .00000063  00000-0  38882-4 0  6412
2 20437  98.2018 339.0910 0011713  99.2480 261.0027 14.31382975773914
AO-16
1 20439U 90005D   04322.64322051  .00000103  00000-0  53809-4 0  3308
2 20439  98.2311 353.0001 0011808 108.7250 251.5207 14.31642539773824
WO-18
1 20441U 90005F   04323.00831647  .00000156  00000-0  73626-4 0  5206
2 20441  98.2440 357.4833 0012603 108.9920 251.2618 14.31717997773937
LO-19
1 20442U 90005G   04323.68057615  .00000131  00000-0  64303-4 0  2567
2 20442  98.2538   2.2969 0012717 105.3785 254.8793 14.31889971774090
UO-22
1 21575U 91050B   04323.09927839  .00000146  00000-0  60163-4 0  2572
2 21575  98.2151 290.7540 0007481  14.5179 345.6231 14.39435419700130
KO-23
1 22077U 92052B   04323.14872714 -.00000037  00000-0  10000-3 0  3160
2 22077  66.0871 228.4126 0012977 311.2301  48.7365 12.86427129576441
AO-27
1 22825U 93061C   04323.17492921  .00000092  00000-0  52449-4 0  9916
2 22825  98.2450 323.9585 0008716 162.2493 197.8997 14.29097957581088
IO-26
1 22826U 93061D   04323.45186453  .00000117  00000-0  61949-4 0  6604
2 22826  98.2414 325.5089 0009021 159.6970 200.4577 14.29336161581185
KO-25
1 22828U 93061F   04323.63553110 -.00000033  00000-0  28294-5 0  9253
2 22828  98.2354 325.9108 0010492 138.2138 221.9847 14.29653243549432
TO-31
1 25396U 98043C   04322.79274798 -.00000043  00000-0  00000 0 0  1059
2 25396  98.5586  30.1037 0003528  83.1450 277.0165 14.23643900330333
GO-32
1 25397U 98043D   04322.71937409  .00000079  00000-0  53782-4 0  6038
2 25397  98.5505  27.9427 0002159  88.5245 271.6528 14.23059995330251
UO-36
1 25693U 99021A   04323.83976810  .00000082  00000-0  30816-4 0  6540
2 25693  64.5583 209.6637 0043148 239.0584 120.6260 14.78421309300720
SO-41
1 26545U 00057A   04323.02291461  .00000366  00000-0  66975-4 0  9308
2 26545  64.5588 228.0099 0026796 342.3295  17.6820 14.79931878223679
MO-46
1 26548U 00057D   04322.79763499  .00000452  00000-0  74043-4 0   312
2 26548  64.5581 213.9517 0026008 328.0649  31.8854 14.82507097223944
SO-42
1 26549U 00057E   04323.12385713  .00000529  00000-0  90514-4 0  9887
2 26549  64.5568 235.1770 0026402 352.6963   7.3714 14.78821160223541
NO-44
1 26931U 01043C   04323.00349994 -.00000043  00000-0  15680-4 0  9025
2 26931  67.0546  51.6848 0007133 268.3001  91.7285 14.29339461163584
AO-49
1 27605U 02058A   04322.77654745  .00000136  00000-0  42405-4 0  5884
2 27605  64.5593  58.0782 0085031 281.5336  77.6235 14.71974510102731
SO-50
1 27607U 02058C   04323.26952849  .00000438  00000-0  89780-4 0  5700
2 27607  64.5598  61.0481 0086007 280.3147  78.8299 14.70791571102713
AO-51
1 28375U 04025K   04322.74991915 -.00000034  00000-0  27172-5 0  1110
2 28375  98.2428  27.3664 0084485 148.9405 211.6805 14.40409643 20176
NOAA-10
1 16969U 86073A   04323.38240222  .00000168  00000-0  86853-4 0  4758
2 16969  98.7618 322.6862 0012764  30.7990 329.3942 14.27225631945024
NOAA-11
1 19531U 88089A   04323.25596035 -.00000234  00000-0 -98318-4 0  3324
2 19531  98.8609  46.0780 0011956 184.0494 176.0613 14.14737894833105
NOAA-12
1 21263U 91032A   04323.81040008  .00000131  00000-0  55407-4 0  8193
2 21263  98.6845 310.0210 0012389 324.6530  35.4315 14.25430501702318
MET-3/5
1 21655U 91056A   04323.13276727  .00000051  00000-0  10000-3 0  6725
2 21655  82.5539 307.7567 0014105  45.7144 314.5074 13.16998614637530
MET-2/21
1 22782U 93055A   04322.81590334  .00000084  00000-0  63008-4 0   586
2 22782  82.5495  68.6577 0021907   0.1077   0.0095 13.83574470566349
OKEAN-4
1 23317U 94066A   04323.36804131  .00000581  00000-0  70009-4 0  4752
2 23317  82.5383  93.9304 0023986 109.4864 250.8951 14.81965852544681
NOAA-14
1 23455U 94089A   04323.84976736  .00000229  00000-0  12157-3 0  3548
2 23455  99.1221   2.4335 0008755 230.2266 129.8605 14.13510301509877
SICH-1
1 23657U 95046A   04323.38272388  .00000599  00000-0  73881-4 0  2784
2 23657  82.5307 234.7207 0025828  94.4176 265.9994 14.80993362496751
NOAA-15
1 25338U 98030A   04323.84049865  .00000132  00000-0  56922-4 0  8035
2 25338  98.5176 332.5636 0009675 252.4888 107.5715 14.24467871338814
RESURS
1 25394U 98043A   04323.49594118  .00000069  00000-0  48534-4 0  9500
2 25394  98.5670  32.4317 0002261  69.1110 291.0312 14.24035625330465
FENGYUN1
1 25730U 99025A   04322.65411766  .00000135  00000-0  97197-4 0  2820
2 25730  98.6053 326.9419 0014493 348.1956  11.8858 14.11783396284661
OKEAN-0
1 25860U 99039A   04323.40995499  .00000338  00000-0  59781-4 0  2825
2 25860  97.7813 352.3336 0001631 118.5347 241.6016 14.73154094286973
NOAA-16
1 26536U 00055A   04323.86483622  .00000096  00000-0  52114-4 0  1054
2 26536  98.9850 275.4430 0010097 304.4981  55.5723 14.12175908214376
NOAA-17
1 27453U 02032A   04323.86336598  .00000255  00000-0  11214-3 0  1264
2 27453  98.6858  34.3330 0011098 308.0395  52.0257 14.23597050124914
HUBBLE
1 20580U 90037B   04322.88442508  .00001020  00000-0  68121-4 0  2082
2 20580  28.4667 205.3197 0003958 189.3242 170.7234 14.99440118598491
UARS
1 21701U 91063B   04323.79447568  .00000114  00000-0  26916-4 0  3136
2 21701  56.9823 322.8319 0004169  81.6478 278.5020 15.03683314721848
PO-34
1 25520U 98064B   04322.21654850  .00001238  00000-0  53034-4 0   548
2 25520  28.4621 289.0722 0005499  83.1732 276.9485 15.15902489334386
ISS
1 25544U 98067A   04323.97911443  .00017104  00000-0  14238-3 0  1749
2 25544  51.6385 255.8107 0004678  20.6857  69.3622 15.70233946342637
OO-38
1 26063U 00004C   04322.54760959  .00000036  00000-0  32822-4 0  2125
2 26063 100.2247 137.6369 0036577 290.9408  68.7860 14.35682606251925
NO-45
1 26932U 01043D   04323.26807010  .00000103  00000-0  72677-4 0  8958
2 26932  67.0612  50.6499 0007149 285.0961  74.9354 14.29455044163652


Read previous mail | Read next mail


 11.09.2026 21:34:50lGo back Go up